Title: Characterisation of Active Main Belt Object P/2012 F5 (Gibbs): A Possible Impacted Asteroid
Authors: R. Stevenson, E. A. Kramer, J. M. Bauer, J. R. Masiero, A. K. Mainzer

In this work we characterise the recently discovered active main belt object P/2012 F5 (Gibbs), which was discovered with a dust trail > 7' in length in the outer main belt, 7 months prior to aphelion. We use optical imaging obtained on UT 2012 March 27 to analyse the central condensation and the long trail. We find nuclear B-band and R-band apparent magnitudes of 20.96 and 19.93 mag, respectively, which give an upper limit on the radius of the nucleus of 2.1 km. The geometric cross-section of material in the trail was ~ 4 x 10^8 m^2, corresponding to a dust mass of ~ 5 x 10^7 kg. Analysis of infrared images taken by the Wide-Field Infrared Survey Explorer in September 2010 reveals that the object was below the detection limit, suggesting that it was less active than it was during 2012, or possibly inactive, just 6 months after it passed through perihelion. We set a 1-sigma upper limit on its radius during this time of 2.9 km. P/2012 F5 (Gibbs) is dynamically stable in the outer main belt on timescales of ~ 1 Gyr, pointing towards an asteroidal origin. We find that the morphology of the ejected dust is consistent with it being produced by a single event that occurred on UT 2011 July 7 ± 20 days, possibly as the result of a collision with a small impactor.

Read more (1138kb, PDF)



__________________


L

Posts: 131433
Date:
Permalink  
 

Orbital elements:
    P/2012 F5 (Gibbs)
Epoch 2010 Mar. 25.0 TT = JDT 2455280.5
T 2010 Mar. 20.07741 TT                                 MPC
q   2.8726370            (2000.0)            P               Q
n   0.18942753     Peri.  175.81710     +0.84160033     -0.53047949
a   3.0026681      Node   216.80634     +0.49048805     +0.82934865
e   0.0433052      Incl.    9.75306     +0.22612021     +0.17542045
P   5.20
From 59 observations 2012 Feb. 20-Mar. 26

MPEC 2012 - F91



__________________
1 2  >  Last»  | Page of 2  sorted by
Quick Reply

Please log in to post quick replies.



Create your own FREE Forum
Report Abuse
Powered by ActiveBoard